Wind_Speed
5 5 6 7 7 7 7 7 7 6 6 7 7 8 9 9 10 11 11 11 12 12 12 12 12 11 11 10 10 9 8 8 8 7 7 6 6 5 5 5 4 3 3
5 6 7 7 8 8 8 8 8 8 8 8 8 9 10 11 11 12 12 12 13 13 13 13 13 13 12 11 10 10 9 9 8 8 7 7 6 6 5 5 5 4 4
6 7 8 9 9 9 9 9 9 9 9 10 10 11 12 12 13 13 13 14 14 14 14 14 14 13 13 12 11 11 10 9 9 9 8 8 8 7 6 6 6 5 5
8 9 9 10 10 10 10 10 10 11 11 12 12 13 13 14 15 15 15 15 15 15 15 15 15 14 14 14 13 12 11 10 10 9 9 9 9 8 8 7 7 6 6
9 10 10 10 11 11 11 11 11 12 13 13 14 14 15 15 16 16 16 17 17 17 17 16 16 15 15 14 14 13 12 11 11 10 10 10 10 9 9 8 8 7 7
10 10 11 11 11 11 11 12 13 13 14 14 15 15 16 16 16 17 17 18 18 18 18 18 17 16 16 15 15 14 13 13 12 11 11 11 11 11 10 10 9 9 8
11 12 12 11 11 11 12 12 13 14 14 15 16 17 17 18 18 18 18 18 19 19 19 19 19 18 17 16 16 15 14 14 13 12 12 12 11 11 11 11 11 10 9
12 13 12 12 12 12 13 13 14 15 15 16 17 18 19 19 20 20 20 19 20 20 20 20 20 19 18 18 17 16 15 15 14 13 13 13 12 12 11 11 11 11 10
13 13 13 13 13 14 14 15 15 17 17 18 19 19 19 20 20 21 21 21 21 21 21 21 21 21 20 19 18 18 17 16 16 15 14 14 14 13 12 12 12 11 11
14 14 14 14 15 15 15 16 17 17 18 19 19 20 20 20 21 21 23 22 22 22 22 22 22 22 22 21 20 19 18 17 17 17 16 16 15 14 14 14 13 12 12
15 15 15 15 16 17 17 17 18 18 18 19 19 20 21 21 22 22 23 23 23 23 22 22 22 23 22 22 22 21 20 18 18 18 17 17 16 16 15 15 14 14 13
15 16 17 17 18 18 17 18 18 18 18 18 18 19 21 22 22 23 23 24 23 23 23 22 23 23 23 23 22 22 21 19 19 19 19 18 17 17 17 16 16 15 15
16 17 18 19 19 18 19 19 19 18 18 19 19 19 20 21 22 22 23 24 23 24 24 24 24 24 24 24 23 22 22 21 20 20 19 19 18 18 17 17 17 17 16
17 17 18 19 20 19 20 20 20 19 19 19 19 20 21 21 22 23 23 24 23 24 24 24 24 25 25 24 24 24 23 22 21 21 21 20 20 19 18 18 18 19 18
17 18 19 20 20 20 20 20 20 20 20 20 20 21 21 21 21 23 23 23 24 24 25 25 25 25 25 25 25 25 25 24 23 22 22 22 21 21 20 19 19 19 19
18 19 19 19 20 21 21 21 21 21 21 21 21 21 21 21 21 22 23 24 24 23 24 24 25 26 26 26 26 26 26 25 25 24 23 23 22 22 21 20 20 20 20
19 19 20 20 21 22 22 22 21 22 21 21 21 21 22 22 21 22 22 23 23 23 23 24 24 25 25 25 25 25 25 25 25 25 24 24 23 22 22 21 21 21 22
20 20 21 22 22 22 22 22 21 22 22 22 22 22 22 22 22 23 23 23 23 23 23 24 24 24 25 25 25 25 25 26 26 26 26 25 25 24 24 24 23 23 23
20 21 21 22 21 22 22 23 22 22 23 23 24 24 23 23 23 23 23 24 24 25 24 24 25 26 26 26 26 26 27 27 27 27 26 26 26 25 25 25 24 24 24
20 20 21 21 21 21 23 24 23 23 23 24 24 24 24 23 24 24 25 25 25 26 25 26 26 26 26 26 27 27 27 27 28 28 27 26 26 26 26 26 25 25 25
20 22 21 21 21 22 23 23 22 23 25 25 24 24 24 25 25 25 26 26 26 27 27 27 27 26 26 26 27 28 28 28 29 29 29 29 28 28 27 26 25 25 25
21 22 23 22 22 22 23 23 23 24 25 24 25 26 26 27 27 27 27 27 27 27 28 28 27 27 27 27 27 28 29 30 30 30 30 30 30 29 28 28 27 26 26
22 22 23 23 23 24 24 25 25 25 25 25 26 26 27 28 28 27 27 27 27 27 27 28 28 28 27 27 28 28 28 29 31 31 31 31 31 30 29 28 27 27 26
22 23 23 23 24 25 25 26 26 27 26 27 28 28 28 28 28 27 27 27 28 27 27 28 28 28 28 29 29 29 29 29 31 31 31 31 31 30 30 29 28 27 27
23 23 23 23 24 25 27 27 27 27 27 28 28 29 28 28 28 28 28 28 28 28 28 28 28 28 28 29 29 30 30 30 31 31 31 31 31 31 31 30 29 29 29
22 23 24 24 25 25 26 26 26 26 26 27 27 28 28 28 28 28 29 28 28 28 28 28 28 28 28 29 29 29 30 30 30 31 30 30 30 31 31 31 30 30 29
Wind_Direction
339 334 325 321 321 320 319 320 320 316 316 318 317 316 315 314 313 313 313 311 310 310 309 308 307 306 306 305 305 304 303 303 303 299 295 296 299 298 297 296 294 286 274
327 319 312 311 313 311 310 310 309 308 309 310 309 308 308 308 307 306 305 304 304 304 303 303 302 301 301 300 299 299 298 297 297 293 292 292 290 288 283 281 279 273 263
316 311 305 303 304 304 304 304 304 305 305 305 304 304 304 303 302 301 300 300 299 300 299 298 298 298 296 295 294 293 292 291 290 288 288 288 286 282 279 274 271 269 262
308 306 301 300 300 300 301 302 302 301 302 301 300 299 299 299 299 299 298 299 299 299 298 296 295 295 293 291 291 290 288 286 286 284 284 282 281 278 272 270 267 270 266
299 301 300 296 297 296 296 297 298 296 296 297 297 295 296 297 297 297 299 299 299 298 297 296 294 294 291 289 287 286 286 283 281 281 280 280 278 277 273 270 267 269 267
290 293 294 292 293 294 293 294 296 294 293 294 295 293 294 295 295 295 296 297 297 297 296 295 294 292 290 287 285 284 283 280 279 280 278 278 278 277 272 272 267 269 269
290 290 291 290 288 290 290 293 296 296 294 294 293 292 291 292 292 291 291 293 294 294 294 294 293 291 289 285 283 282 281 280 279 278 277 278 279 279 273 272 268 268 270
292 288 289 290 288 287 290 291 293 294 292 291 292 292 291 291 290 288 286 288 290 290 290 291 290 289 287 283 281 280 279 278 277 276 276 276 277 277 275 273 270 269 268
292 290 286 286 288 288 288 291 291 293 292 289 289 289 289 289 288 285 283 284 285 287 287 287 287 285 283 281 279 279 277 275 275 276 276 276 274 274 275 275 270 268 267
286 285 284 286 287 289 289 290 292 293 292 291 288 287 286 286 286 284 283 282 283 285 284 283 284 284 281 279 277 276 274 273 272 273 274 275 273 272 272 271 269 265 263
284 285 285 286 288 290 290 291 291 292 292 292 290 287 285 285 285 285 284 282 283 282 282 281 281 282 282 280 277 275 273 271 271 271 272 272 271 271 269 267 266 263 259
284 285 285 288 289 289 289 288 288 290 291 292 292 288 285 284 285 285 283 282 282 280 279 279 279 280 279 278 277 275 272 269 268 270 269 269 269 270 268 265 265 263 260
282 284 286 287 288 285 285 287 285 287 289 289 290 289 287 285 285 284 283 280 279 279 279 278 278 279 278 276 276 274 271 268 267 269 267 267 269 269 266 263 261 262 263
278 281 284 285 287 282 282 284 283 284 287 289 290 289 287 286 285 283 282 279 277 277 278 278 278 279 278 275 275 273 270 267 265 267 267 267 268 267 265 262 260 260 263
280 283 282 284 284 281 281 282 284 285 285 288 290 289 289 287 287 284 282 279 278 277 277 277 276 276 276 275 273 271 268 267 266 265 263 265 265 264 264 262 260 261 261
281 281 282 281 281 280 281 282 282 284 287 290 289 289 289 288 287 287 286 282 281 281 277 274 274 274 273 273 272 270 268 266 264 263 262 263 262 263 263 262 260 260 261
281 282 282 284 286 285 286 284 283 285 286 286 288 288 289 288 287 287 286 283 282 281 279 275 274 274 272 271 269 266 263 263 264 263 263 261 261 261 260 260 260 260 261
283 283 284 286 288 287 286 287 284 284 286 287 288 289 290 289 288 287 286 284 282 281 279 276 273 272 271 268 267 265 264 264 263 262 260 259 259 258 259 259 259 259 259
285 285 286 289 290 289 289 289 285 284 286 287 287 288 288 287 286 286 284 283 281 280 278 276 275 274 272 268 266 265 264 263 261 261 259 257 257 258 258 259 260 260 259
286 287 287 291 292 291 291 288 284 284 284 285 286 286 287 288 286 285 284 284 281 279 278 277 275 274 271 268 265 264 264 263 260 258 257 256 257 257 258 258 259 260 261
288 288 289 290 292 292 293 287 285 285 284 284 284 285 287 288 287 285 285 284 283 279 278 278 277 275 272 269 266 265 263 262 260 259 258 256 256 256 255 256 259 258 259
292 291 289 289 291 292 291 286 285 285 285 284 284 285 287 287 286 285 284 285 284 280 278 278 277 276 273 269 266 264 263 262 262 261 258 257 257 255 253 254 255 256 256
294 293 292 289 290 291 291 289 285 284 284 286 287 288 288 287 286 285 284 284 284 281 279 277 276 275 273 269 266 265 264 263 262 260 258 258 257 255 253 253 255 256 257
293 294 293 292 291 292 291 291 287 285 284 286 288 289 290 290 287 285 285 285 285 281 279 278 277 276 274 271 268 266 264 263 260 259 260 259 257 255 254 255 256 256 256
291 292 293 295 294 292 291 291 292 287 286 287 288 290 290 290 287 285 284 284 285 283 280 277 276 276 274 272 268 266 266 264 262 259 257 257 257 255 255 254 255 256 257
292 293 294 296 294 293 293 293 294 290 289 289 290 290 290 288 287 286 286 285 284 283 281 279 276 276 274 272 269 268 266 265 263 260 257 253 253 255 255 254 254 255 256
Height
5905 5904 5905 5904 5904 5904 5903 5903 5903 5903 5903 5903 5903 5903 5903 5903 5903 5903 5902 5902 5901 5901 5901 5900 5900 5899 5898 5898 5897 5897 5897 5896 5896 5896 5896 5895 5895 5895 5895 5895 5895 5895 5895
5905 5904 5904 5904 5903 5903 5903 5902 5902 5902 5902 5902 5902 5902 5902 5902 5901 5901 5901 5900 5900 5900 5900 5899 5898 5898 5897 5897 5896 5896 5895 5895 5895 5895 5895 5894 5894 5894 5894 5894 5894 5894 5894
5904 5904 5903 5903 5902 5902 5902 5901 5901 5901 5901 5901 5901 5901 5901 5900 5900 5900 5899 5899 5899 5898 5898 5898 5897 5896 5896 5896 5895 5895 5894 5894 5894 5893 5893 5893 5893 5893 5893 5893 5893 5893 5893
5903 5903 5902 5902 5901 5901 5901 5900 5900 5900 5900 5899 5899 5899 5899 5898 5898 5898 5898 5897 5897 5896 5896 5895 5895 5895 5894 5894 5894 5893 5893 5893 5893 5892 5892 5892 5892 5892 5892 5892 5892 5892 5892
5901 5901 5901 5900 5900 5900 5899 5899 5898 5898 5898 5898 5897 5897 5896 5896 5896 5895 5895 5895 5894 5894 5893 5893 5893 5893 5892 5892 5892 5892 5891 5891 5891 5891 5891 5891 5891 5891 5891 5891 5891 5891 5891
5900 5899 5899 5898 5898 5898 5898 5897 5897 5896 5896 5895 5895 5895 5894 5894 5893 5893 5893 5892 5892 5891 5891 5891 5891 5890 5890 5890 5890 5890 5889 5889 5889 5889 5889 5889 5889 5889 5889 5889 5889 5889 5889
5898 5897 5897 5896 5896 5896 5896 5895 5895 5894 5894 5893 5893 5892 5892 5891 5891 5890 5890 5889 5889 5888 5888 5888 5887 5887 5887 5887 5887 5887 5887 5887 5887 5887 5887 5887 5886 5886 5886 5886 5886 5887 5887
5896 5896 5895 5895 5894 5894 5893 5893 5892 5892 5891 5891 5890 5889 5889 5888 5888 5887 5886 5886 5886 5885 5885 5885 5884 5884 5884 5884 5884 5884 5884 5884 5884 5884 5884 5884 5884 5884 5884 5884 5884 5884 5884
5894 5893 5893 5893 5892 5891 5891 5890 5890 5889 5888 5887 5887 5886 5886 5885 5884 5883 5883 5883 5882 5882 5881 5881 5881 5881 5881 5881 5881 5881 5881 5881 5881 5881 5881 5881 5881 5881 5881 5881 5881 5881 5882
5892 5891 5890 5890 5889 5889 5888 5887 5887 5886 5885 5884 5883 5883 5882 5882 5881 5880 5880 5879 5879 5878 5878 5877 5877 5877 5877 5877 5877 5877 5877 5877 5877 5877 5878 5878 5878 5878 5878 5878 5878 5878 5879
5889 5888 5888 5887 5886 5885 5885 5884 5883 5882 5881 5880 5880 5879 5878 5878 5877 5876 5876 5875 5875 5874 5874 5873 5873 5873 5873 5873 5873 5873 5873 5874 5874 5874 5874 5874 5874 5874 5874 5874 5875 5875 5876
5886 5885 5884 5884 5883 5882 5881 5880 5880 5879 5878 5877 5876 5875 5874 5873 5873 5872 5871 5871 5870 5870 5869 5869 5869 5869 5869 5868 5869 5869 5869 5870 5870 5870 5870 5871 5871 5871 5871 5871 5871 5872 5872
5882 5882 5881 5880 5879 5878 5878 5877 5876 5875 5874 5873 5872 5871 5870 5869 5868 5867 5866 5866 5865 5865 5865 5864 5864 5864 5864 5864 5864 5864 5865 5865 5866 5866 5866 5867 5867 5867 5867 5867 5867 5868 5869
5879 5878 5877 5877 5875 5875 5874 5873 5872 5871 5870 5869 5868 5867 5866 5865 5863 5862 5862 5861 5860 5860 5859 5859 5859 5859 5859 5859 5859 5859 5860 5861 5861 5861 5862 5862 5863 5863 5863 5863 5863 5864 5865
5874 5874 5874 5873 5872 5871 5870 5869 5868 5867 5866 5865 5864 5863 5861 5860 5859 5858 5857 5856 5855 5855 5854 5854 5853 5853 5853 5853 5854 5854 5854 5855 5856 5856 5857 5858 5858 5858 5859 5859 5859 5860 5861
5871 5870 5869 5868 5868 5867 5866 5865 5864 5863 5861 5860 5859 5858 5857 5855 5854 5853 5852 5851 5850 5849 5848 5848 5847 5847 5847 5848 5848 5848 5849 5849 5850 5851 5852 5852 5853 5854 5854 5855 5855 5855 5856
5867 5866 5865 5864 5863 5862 5861 5860 5859 5858 5857 5855 5854 5853 5852 5850 5849 5848 5847 5845 5844 5843 5843 5842 5842 5841 5841 5842 5842 5842 5843 5843 5844 5845 5846 5847 5848 5848 5849 5850 5850 5851 5851
5862 5862 5861 5860 5858 5857 5856 5855 5854 5853 5852 5851 5849 5848 5846 5845 5844 5842 5841 5840 5839 5838 5837 5836 5836 5836 5835 5836 5836 5836 5837 5837 5838 5839 5840 5841 5842 5843 5843 5844 5845 5845 5846
5858 5857 5856 5855 5853 5852 5851 5850 5849 5848 5847 5846 5844 5843 5841 5840 5838 5837 5835 5834 5833 5832 5831 5831 5830 5829 5829 5829 5829 5830 5830 5831 5832 5832 5833 5834 5835 5836 5837 5838 5839 5840 5840
5854 5853 5852 5850 5848 5847 5846 5844 5843 5842 5841 5840 5839 5837 5836 5834 5833 5831 5830 5828 5827 5826 5826 5825 5824 5823 5823 5823 5823 5823 5823 5824 5825 5826 5827 5828 5829 5830 5831 5832 5833 5834 5834
5850 5849 5847 5845 5844 5842 5840 5839 5838 5837 5836 5834 5833 5832 5830 5828 5827 5825 5824 5822 5821 5820 5819 5818 5817 5816 5816 5816 5816 5816 5816 5817 5818 5818 5819 5820 5822 5823 5824 5825 5826 5827 5828
5845 5844 5842 5840 5839 5837 5836 5835 5833 5831 5830 5828 5827 5826 5824 5822 5821 5819 5817 5816 5814 5813 5812 5811 5810 5809 5809 5808 5808 5808 5809 5810 5810 5810 5811 5813 5814 5815 5817 5818 5819 5820 5821
5840 5839 5837 5835 5834 5832 5831 5829 5828 5826 5824 5822 5821 5819 5817 5815 5814 5812 5810 5809 5807 5806 5805 5804 5803 5802 5801 5801 5800 5800 5800 5801 5802 5803 5803 5804 5806 5807 5809 5810 5812 5813 5814
5836 5834 5832 5830 5828 5827 5825 5823 5821 5819 5817 5816 5814 5812 5810 5807 5806 5804 5803 5801 5799 5798 5797 5796 5795 5794 5793 5793 5792 5792 5792 5792 5793 5794 5795 5796 5797 5799 5801 5803 5804 5806 5807
5831 5829 5827 5825 5824 5821 5819 5817 5815 5813 5811 5809 5807 5804 5802 5800 5799 5797 5795 5794 5792 5790 5789 5788 5787 5786 5785 5784 5783 5783 5783 5784 5784 5785 5787 5788 5789 5791 5793 5795 5796 5798 5800
5826 5824 5822 5820 5818 5816 5813 5811 5809 5807 5804 5802 5799 5797 5795 5793 5791 5789 5788 5786 5784 5783 5781 5780 5778 5777 5776 5775 5775 5775 5775 5775 5775 5776 5778 5780 5781 5782 5784 5786 5789 5790 5792